QPF
0.00 0.01 0.02 0.04 0.09 0.11 0.06 0.03 0.02 0.01 0.02 0.03 0.04 0.06 0.07 0.05 0.06 0.07 0.03 0.02 0.03 0.03 0.03 0.04 0.02 0.02 0.03 0.03 0.04 0.05 0.06 0.07 0.09 0.10 0.08 0.06 0.06 0.05 0.05 0.05 0.04 0.05 0.06 0.06 0.07 0.06 0.05 0.06 0.08
0.00 0.02 0.03 0.06 0.13 0.10 0.06 0.03 0.03 0.01 0.01 0.02 0.02 0.05 0.06 0.06 0.05 0.04 0.03 0.02 0.02 0.02 0.02 0.03 0.02 0.02 0.03 0.02 0.03 0.04 0.05 0.05 0.06 0.07 0.06 0.06 0.05 0.05 0.05 0.06 0.05 0.05 0.05 0.05 0.05 0.04 0.05 0.05 0.05
0.01 0.01 0.02 0.08 0.08 0.08 0.06 0.03 0.01 0.00 0.01 0.01 0.01 0.03 0.06 0.07 0.06 0.05 0.03 0.02 0.02 0.02 0.02 0.02 0.02 0.02 0.02 0.03 0.03 0.03 0.03 0.04 0.06 0.07 0.06 0.06 0.05 0.06 0.05 0.06 0.05 0.05 0.05 0.04 0.05 0.03 0.04 0.04 0.05
0.01 0.02 0.04 0.07 0.07 0.05 0.03 0.01 0.00 0.01 0.01 0.01 0.01 0.02 0.07 0.10 0.09 0.06 0.03 0.02 0.02 0.02 0.01 0.01 0.01 0.02 0.02 0.02 0.03 0.02 0.03 0.04 0.05 0.05 0.07 0.06 0.07 0.08 0.06 0.05 0.05 0.05 0.05 0.05 0.06 0.05 0.04 0.04 0.05
0.01 0.03 0.09 0.08 0.04 0.01 0.01 0.00 0.00 0.01 0.01 0.00 0.00 0.01 0.05 0.08 0.09 0.06 0.02 0.01 0.01 0.02 0.02 0.01 0.01 0.02 0.02 0.03 0.02 0.03 0.04 0.04 0.04 0.05 0.08 0.06 0.06 0.05 0.04 0.04 0.04 0.04 0.04 0.04 0.04 0.05 0.05 0.04 0.04
0.04 0.05 0.08 0.05 0.01 0.00 0.00 0.00 0.00 0.00 0.01 0.01 0.00 0.01 0.04 0.05 0.07 0.07 0.03 0.02 0.02 0.02 0.02 0.01 0.01 0.02 0.03 0.03 0.03 0.04 0.05 0.05 0.05 0.05 0.06 0.06 0.06 0.05 0.04 0.03 0.04 0.04 0.05 0.05 0.03 0.04 0.04 0.04 0.05
0.11 0.08 0.06 0.02 0.01 0.00 0.00 0.00 0.00 0.00 0.00 0.01 0.01 0.01 0.03 0.03 0.04 0.04 0.03 0.03 0.03 0.04 0.04 0.03 0.02 0.03 0.03 0.02 0.03 0.05 0.08 0.07 0.07 0.05 0.04 0.05 0.04 0.04 0.04 0.04 0.04 0.06 0.06 0.06 0.04 0.03 0.03 0.04 0.05
0.02 0.06 0.03 0.01 0.00 0.00 0.00 0.00 0.00 0.01 0.01 0.00 0.00 0.02 0.06 0.05 0.02 0.02 0.01 0.02 0.02 0.03 0.03 0.04 0.04 0.04 0.04 0.04 0.04 0.07 0.10 0.08 0.07 0.04 0.04 0.04 0.05 0.04 0.04 0.05 0.06 0.05 0.06 0.06 0.05 0.04 0.03 0.03 0.03
0.02 0.03 0.03 0.01 0.00 0.00 0.00 0.00 0.00 0.01 0.00 0.00 0.00 0.01 0.03 0.03 0.02 0.02 0.02 0.02 0.02 0.01 0.02 0.02 0.03 0.04 0.05 0.06 0.06 0.09 0.13 0.08 0.06 0.05 0.05 0.07 0.10 0.09 0.08 0.06 0.06 0.04 0.05 0.06 0.06 0.05 0.05 0.04 0.04
0.05 0.05 0.03 0.00 0.00 0.00 0.00 0.00 0.00 0.01 0.00 0.00 0.00 0.00 0.00 0.01 0.01 0.02 0.02 0.03 0.04 0.03 0.02 0.02 0.02 0.02 0.04 0.05 0.06 0.11 0.10 0.07 0.07 0.07 0.07 0.08 0.10 0.10 0.09 0.07 0.06 0.05 0.05 0.09 0.11 0.10 0.09 0.08 0.08
0.02 0.02 0.01 0.00 0.00 0.00 0.00 0.00 0.00 0.00 0.00 0.00 0.00 0.00 0.00 0.00 0.03 0.04 0.04 0.04 0.05 0.05 0.04 0.02 0.03 0.03 0.06 0.07 0.07 0.07 0.07 0.07 0.06 0.06 0.06 0.08 0.08 0.08 0.08 0.09 0.07 0.06 0.07 0.10 0.13 0.16 0.15 0.14 0.14
0.00 0.00 0.00 0.00 0.00 0.00 0.00 0.00 0.00 0.00 0.00 0.00 0.00 0.00 0.00 0.01 0.02 0.04 0.03 0.03 0.04 0.04 0.04 0.03 0.04 0.05 0.07 0.08 0.06 0.06 0.05 0.05 0.05 0.05 0.06 0.07 0.07 0.08 0.07 0.08 0.10 0.11 0.10 0.10 0.10 0.15 0.17 0.14 0.12
0.00 0.00 0.00 0.00 0.00 0.00 0.00 0.00 0.00 0.00 0.00 0.00 0.00 0.00 0.00 0.00 0.02 0.02 0.01 0.01 0.03 0.06 0.04 0.04 0.04 0.04 0.06 0.06 0.06 0.06 0.06 0.06 0.05 0.05 0.05 0.05 0.07 0.09 0.08 0.06 0.09 0.08 0.08 0.09 0.07 0.07 0.15 0.18 0.12
0.00 0.00 0.00 0.00 0.00 0.00 0.00 0.00 0.00 0.00 0.00 0.00 0.00 0.00 0.00 0.00 0.01 0.02 0.02 0.02 0.02 0.04 0.03 0.05 0.03 0.03 0.04 0.05 0.06 0.07 0.07 0.08 0.07 0.06 0.05 0.05 0.07 0.09 0.09 0.07 0.06 0.05 0.05 0.06 0.05 0.05 0.08 0.11 0.11
0.00 0.01 0.00 0.00 0.00 0.00 0.00 0.01 0.00 0.00 0.00 0.00 0.00 0.00 0.00 0.00 0.00 0.01 0.01 0.02 0.02 0.03 0.03 0.03 0.03 0.02 0.05 0.05 0.05 0.05 0.06 0.04 0.05 0.05 0.05 0.06 0.06 0.07 0.06 0.06 0.06 0.05 0.04 0.05 0.04 0.05 0.06 0.06 0.06
0.01 0.01 0.01 0.00 0.00 0.00 0.01 0.03 0.01 0.00 0.00 0.01 0.00 0.00 0.00 0.01 0.00 0.00 0.01 0.02 0.02 0.01 0.03 0.02 0.01 0.04 0.05 0.05 0.04 0.05 0.04 0.03 0.04 0.04 0.04 0.04 0.03 0.04 0.05 0.05 0.06 0.06 0.04 0.06 0.05 0.05 0.05 0.06 0.06
0.01 0.01 0.01 0.01 0.00 0.00 0.00 0.02 0.01 0.00 0.01 0.01 0.01 0.00 0.01 0.01 0.01 0.01 0.02 0.01 0.01 0.02 0.02 0.01 0.02 0.03 0.04 0.05 0.05 0.04 0.04 0.05 0.05 0.05 0.05 0.05 0.04 0.04 0.04 0.04 0.05 0.06 0.06 0.08 0.07 0.06 0.07 0.06 0.06
0.02 0.01 0.00 0.00 0.00 0.00 0.00 0.00 0.00 0.00 0.01 0.01 0.01 0.01 0.02 0.02 0.01 0.01 0.02 0.01 0.01 0.01 0.02 0.02 0.03 0.04 0.04 0.04 0.05 0.04 0.04 0.04 0.04 0.05 0.07 0.07 0.08 0.06 0.07 0.07 0.06 0.06 0.08 0.07 0.07 0.07 0.07 0.08 0.07
0.00 0.00 0.00 0.00 0.00 0.00 0.00 0.00 0.01 0.01 0.01 0.01 0.01 0.01 0.01 0.02 0.01 0.01 0.01 0.01 0.01 0.01 0.02 0.02 0.02 0.03 0.04 0.04 0.05 0.05 0.05 0.05 0.04 0.05 0.06 0.06 0.07 0.08 0.10 0.09 0.08 0.08 0.06 0.05 0.06 0.07 0.07 0.08 0.08
0.00 0.00 0.00 0.00 0.00 0.00 0.00 0.01 0.03 0.02 0.01 0.01 0.01 0.02 0.02 0.02 0.02 0.01 0.01 0.01 0.01 0.01 0.01 0.02 0.02 0.03 0.03 0.04 0.05 0.05 0.05 0.04 0.04 0.05 0.06 0.05 0.05 0.06 0.07 0.08 0.07 0.06 0.05 0.04 0.05 0.06 0.06 0.07 0.09
0.00 0.00 0.00 0.00 0.00 0.01 0.01 0.04 0.05 0.02 0.01 0.01 0.01 0.01 0.01 0.01 0.01 0.01 0.01 0.01 0.01 0.01 0.01 0.01 0.02 0.03 0.04 0.04 0.04 0.04 0.05 0.05 0.05 0.06 0.07 0.05 0.04 0.04 0.05 0.06 0.06 0.06 0.05 0.06 0.07 0.07 0.06 0.06 0.07
0.00 0.00 0.00 0.00 0.01 0.02 0.02 0.04 0.03 0.02 0.02 0.01 0.01 0.01 0.01 0.01 0.01 0.01 0.01 0.01 0.02 0.02 0.02 0.02 0.03 0.04 0.04 0.04 0.04 0.04 0.04 0.04 0.05 0.06 0.05 0.04 0.03 0.03 0.03 0.03 0.04 0.04 0.05 0.06 0.06 0.06 0.06 0.06 0.05
0.00 0.00 0.00 0.00 0.01 0.02 0.02 0.04 0.05 0.02 0.03 0.02 0.02 0.01 0.01 0.01 0.01 0.01 0.01 0.02 0.03 0.03 0.03 0.03 0.03 0.03 0.03 0.03 0.04 0.05 0.06 0.06 0.05 0.05 0.04 0.04 0.03 0.02 0.02 0.02 0.03 0.03 0.03 0.04 0.05 0.06 0.06 0.05 0.04
0.00 0.00 0.01 0.01 0.02 0.02 0.02 0.03 0.05 0.03 0.03 0.04 0.02 0.01 0.01 0.01 0.01 0.01 0.01 0.02 0.02 0.03 0.03 0.03 0.03 0.03 0.03 0.03 0.04 0.05 0.06 0.07 0.05 0.04 0.03 0.02 0.02 0.02 0.02 0.02 0.02 0.02 0.02 0.03 0.04 0.04 0.05 0.05 0.05
0.00 0.00 0.01 0.02 0.04 0.03 0.02 0.01 0.02 0.02 0.01 0.01 0.01 0.01 0.01 0.01 0.01 0.01 0.01 0.01 0.02 0.02 0.02 0.02 0.03 0.03 0.03 0.03 0.03 0.04 0.06 0.05 0.03 0.02 0.02 0.02 0.02 0.02 0.02 0.02 0.02 0.02 0.02 0.02 0.02 0.03 0.04 0.04 0.05
0.00 0.00 0.01 0.02 0.03 0.03 0.01 0.02 0.03 0.02 0.01 0.00 0.00 0.01 0.00 0.01 0.03 0.02 0.02 0.02 0.02 0.02 0.01 0.01 0.02 0.02 0.02 0.02 0.02 0.02 0.03 0.02 0.02 0.02 0.02 0.02 0.01 0.01 0.01 0.01 0.02 0.02 0.02 0.02 0.03 0.03 0.03 0.04 0.05
0.00 0.00 0.00 0.02 0.02 0.01 0.01 0.01 0.04 0.05 0.01 0.00 0.00 0.01 0.01 0.01 0.02 0.02 0.02 0.01 0.01 0.01 0.00 0.01 0.01 0.01 0.01 0.01 0.02 0.03 0.02 0.02 0.01 0.02 0.01 0.01 0.01 0.01 0.01 0.02 0.02 0.03 0.05 0.06 0.05 0.04 0.05 0.05 0.05
0.00 0.00 0.00 0.01 0.01 0.02 0.01 0.03 0.07 0.05 0.02 0.01 0.01 0.01 0.01 0.01 0.01 0.01 0.00 0.01 0.01 0.00 0.01 0.01 0.00 0.01 0.01 0.01 0.01 0.02 0.01 0.01 0.01 0.01 0.01 0.02 0.02 0.01 0.01 0.01 0.02 0.04 0.05 0.07 0.09 0.08 0.08 0.08 0.06
0.00 0.00 0.00 0.00 0.01 0.02 0.02 0.02 0.02 0.02 0.01 0.01 0.01 0.01 0.01 0.01 0.01 0.01 0.00 0.00 0.00 0.00 0.00 0.00 0.00 0.01 0.01 0.01 0.01 0.01 0.01 0.01 0.02 0.01 0.01 0.02 0.02 0.02 0.01 0.02 0.03 0.04 0.04 0.05 0.08 0.09 0.10 0.10 0.08
0.00 0.00 0.00 0.01 0.01 0.02 0.02 0.02 0.01 0.01 0.01 0.01 0.01 0.02 0.03 0.02 0.01 0.01 0.01 0.00 0.00 0.00 0.01 0.01 0.01 0.01 0.01 0.01 0.01 0.01 0.02 0.02 0.02 0.02 0.02 0.03 0.02 0.02 0.02 0.02 0.02 0.02 0.03 0.04 0.06 0.07 0.07 0.07 0.07
MSLP
1007.65 1008.55 1009.46 1010.20 1010.65 1010.73 1010.46 1009.91 1009.22 1008.56 1008.06 1007.79 1007.75 1007.85 1007.99 1008.05 1007.95 1007.68 1007.29 1006.89 1006.60 1006.52 1006.71 1007.15 1007.76 1008.42 1009.00 1009.40 1009.58 1009.57 1009.43 1009.27 1009.19 1009.26 1009.49 1009.87 1010.34 1010.84 1011.31 1011.71 1012.04 1012.33 1012.61 1012.90 1013.21 1013.53 1013.84 1014.12 1014.35
1007.81 1008.89 1009.91 1010.70 1011.13 1011.14 1010.76 1010.08 1009.26 1008.48 1007.87 1007.49 1007.33 1007.32 1007.34 1007.30 1007.13 1006.82 1006.44 1006.10 1005.92 1005.99 1006.35 1006.95 1007.72 1008.50 1009.16 1009.62 1009.83 1009.83 1009.69 1009.51 1009.40 1009.43 1009.61 1009.93 1010.33 1010.77 1011.19 1011.57 1011.92 1012.25 1012.60 1012.97 1013.36 1013.75 1014.10 1014.39 1014.61
1008.05 1009.26 1010.37 1011.19 1011.59 1011.54 1011.06 1010.29 1009.39 1008.52 1007.82 1007.35 1007.08 1006.94 1006.84 1006.68 1006.41 1006.04 1005.65 1005.36 1005.28 1005.49 1005.99 1006.75 1007.65 1008.55 1009.30 1009.82 1010.07 1010.08 1009.95 1009.76 1009.63 1009.61 1009.73 1009.97 1010.30 1010.67 1011.04 1011.42 1011.79 1012.19 1012.63 1013.10 1013.59 1014.05 1014.44 1014.74 1014.93
1008.28 1009.57 1010.70 1011.51 1011.87 1011.77 1011.24 1010.44 1009.50 1008.62 1007.89 1007.36 1007.02 1006.79 1006.57 1006.30 1005.92 1005.49 1005.09 1004.83 1004.82 1005.13 1005.75 1006.62 1007.62 1008.59 1009.40 1009.97 1010.25 1010.29 1010.17 1009.99 1009.84 1009.79 1009.87 1010.05 1010.31 1010.63 1010.98 1011.35 1011.77 1012.24 1012.77 1013.34 1013.92 1014.44 1014.87 1015.16 1015.32
1008.43 1009.69 1010.78 1011.52 1011.83 1011.69 1011.17 1010.39 1009.51 1008.68 1008.00 1007.50 1007.15 1006.86 1006.57 1006.20 1005.75 1005.26 1004.84 1004.59 1004.63 1005.00 1005.68 1006.61 1007.65 1008.64 1009.47 1010.04 1010.35 1010.41 1010.32 1010.16 1010.03 1009.99 1010.05 1010.20 1010.43 1010.72 1011.06 1011.45 1011.91 1012.45 1013.06 1013.71 1014.35 1014.92 1015.35 1015.62 1015.73
1008.42 1009.56 1010.51 1011.14 1011.38 1011.22 1010.74 1010.06 1009.31 1008.64 1008.09 1007.69 1007.38 1007.11 1006.78 1006.37 1005.87 1005.35 1004.91 1004.68 1004.74 1005.13 1005.82 1006.74 1007.75 1008.71 1009.50 1010.04 1010.33 1010.41 1010.36 1010.25 1010.18 1010.18 1010.27 1010.45 1010.69 1010.98 1011.33 1011.74 1012.24 1012.82 1013.48 1014.18 1014.84 1015.41 1015.82 1016.05 1016.10
1008.20 1009.12 1009.87 1010.35 1010.50 1010.34 1009.95 1009.43 1008.90 1008.44 1008.09 1007.85 1007.65 1007.43 1007.12 1006.70 1006.18 1005.66 1005.24 1005.02 1005.09 1005.48 1006.14 1007.00 1007.93 1008.79 1009.48 1009.95 1010.21 1010.30 1010.28 1010.26 1010.27 1010.37 1010.55 1010.79 1011.08 1011.40 1011.77 1012.20 1012.72 1013.31 1013.98 1014.67 1015.32 1015.85 1016.21 1016.37 1016.36
1007.78 1008.43 1008.94 1009.23 1009.30 1009.17 1008.91 1008.59 1008.31 1008.11 1007.99 1007.93 1007.86 1007.72 1007.44 1007.04 1006.55 1006.05 1005.66 1005.48 1005.57 1005.94 1006.56 1007.33 1008.14 1008.87 1009.43 1009.81 1010.01 1010.09 1010.13 1010.19 1010.33 1010.55 1010.85 1011.19 1011.56 1011.94 1012.33 1012.77 1013.27 1013.85 1014.48 1015.12 1015.70 1016.16 1016.45 1016.54 1016.47
1007.23 1007.59 1007.84 1007.97 1007.97 1007.89 1007.77 1007.68 1007.66 1007.71 1007.82 1007.93 1007.97 1007.88 1007.64 1007.26 1006.79 1006.34 1006.01 1005.88 1006.01 1006.39 1006.98 1007.66 1008.35 1008.93 1009.36 1009.63 1009.77 1009.85 1009.94 1010.10 1010.36 1010.73 1011.16 1011.62 1012.07 1012.51 1012.93 1013.35 1013.82 1014.34 1014.89 1015.45 1015.95 1016.32 1016.52 1016.55 1016.43
1006.63 1006.72 1006.75 1006.74 1006.71 1006.70 1006.74 1006.87 1007.08 1007.36 1007.64 1007.86 1007.95 1007.88 1007.63 1007.25 1006.80 1006.40 1006.14 1006.09 1006.29 1006.71 1007.29 1007.92 1008.51 1008.98 1009.29 1009.47 1009.55 1009.63 1009.77 1010.02 1010.40 1010.90 1011.46 1012.03 1012.56 1013.05 1013.48 1013.88 1014.29 1014.73 1015.19 1015.65 1016.05 1016.33 1016.47 1016.45 1016.30
1006.08 1005.96 1005.83 1005.74 1005.71 1005.79 1005.99 1006.31 1006.71 1007.13 1007.51 1007.76 1007.83 1007.70 1007.40 1006.97 1006.52 1006.16 1005.97 1006.02 1006.31 1006.81 1007.42 1008.04 1008.58 1008.98 1009.22 1009.33 1009.39 1009.47 1009.65 1009.98 1010.46 1011.07 1011.73 1012.39 1012.99 1013.50 1013.92 1014.29 1014.64 1015.00 1015.37 1015.73 1016.04 1016.26 1016.35 1016.30 1016.15
1005.67 1005.42 1005.20 1005.08 1005.09 1005.27 1005.62 1006.08 1006.61 1007.11 1007.49 1007.69 1007.66 1007.40 1006.97 1006.46 1005.97 1005.63 1005.51 1005.66 1006.06 1006.66 1007.34 1008.00 1008.55 1008.94 1009.15 1009.25 1009.30 1009.40 1009.62 1010.00 1010.56 1011.23 1011.96 1012.67 1013.31 1013.83 1014.24 1014.58 1014.87 1015.16 1015.45 1015.74 1015.99 1016.17 1016.24 1016.20 1016.07
1005.45 1005.14 1004.89 1004.79 1004.87 1005.16 1005.63 1006.20 1006.79 1007.29 1007.61 1007.68 1007.48 1007.05 1006.46 1005.82 1005.27 1004.92 1004.85 1005.09 1005.60 1006.30 1007.08 1007.82 1008.43 1008.85 1009.09 1009.21 1009.29 1009.42 1009.67 1010.10 1010.69 1011.39 1012.15 1012.87 1013.51 1014.03 1014.43 1014.74 1014.99 1015.23 1015.48 1015.73 1015.95 1016.12 1016.21 1016.19 1016.09
1005.42 1005.10 1004.88 1004.83 1005.00 1005.38 1005.94 1006.57 1007.18 1007.63 1007.84 1007.75 1007.36 1006.74 1005.98 1005.21 1004.58 1004.21 1004.16 1004.46 1005.05 1005.85 1006.72 1007.55 1008.23 1008.73 1009.04 1009.22 1009.35 1009.52 1009.81 1010.25 1010.84 1011.54 1012.29 1013.00 1013.62 1014.12 1014.51 1014.80 1015.04 1015.27 1015.50 1015.75 1015.98 1016.16 1016.28 1016.30 1016.24
1005.53 1005.23 1005.05 1005.07 1005.32 1005.79 1006.41 1007.07 1007.65 1008.03 1008.12 1007.89 1007.34 1006.55 1005.65 1004.77 1004.07 1003.67 1003.63 1003.95 1004.58 1005.43 1006.36 1007.26 1008.02 1008.59 1008.99 1009.25 1009.45 1009.68 1009.99 1010.44 1011.02 1011.69 1012.39 1013.05 1013.64 1014.13 1014.51 1014.80 1015.05 1015.29 1015.55 1015.81 1016.07 1016.28 1016.44 1016.50 1016.48
1005.72 1005.44 1005.31 1005.39 1005.70 1006.22 1006.88 1007.54 1008.10 1008.41 1008.41 1008.07 1007.41 1006.53 1005.55 1004.62 1003.88 1003.46 1003.40 1003.71 1004.33 1005.17 1006.11 1007.04 1007.84 1008.48 1008.96 1009.31 1009.59 1009.87 1010.22 1010.67 1011.21 1011.83 1012.46 1013.08 1013.62 1014.08 1014.46 1014.77 1015.05 1015.33 1015.61 1015.91 1016.19 1016.45 1016.64 1016.74 1016.75
1005.90 1005.64 1005.54 1005.66 1006.02 1006.58 1007.24 1007.90 1008.42 1008.69 1008.64 1008.26 1007.58 1006.69 1005.72 1004.81 1004.08 1003.65 1003.57 1003.84 1004.40 1005.18 1006.06 1006.95 1007.76 1008.43 1008.97 1009.39 1009.75 1010.09 1010.47 1010.91 1011.42 1011.97 1012.54 1013.09 1013.59 1014.03 1014.41 1014.74 1015.05 1015.36 1015.68 1016.01 1016.33 1016.60 1016.82 1016.95 1016.99
1006.00 1005.76 1005.69 1005.85 1006.24 1006.81 1007.46 1008.10 1008.59 1008.83 1008.78 1008.43 1007.81 1007.00 1006.13 1005.31 1004.65 1004.25 1004.15 1004.35 1004.82 1005.47 1006.25 1007.05 1007.80 1008.47 1009.04 1009.53 1009.95 1010.35 1010.76 1011.19 1011.66 1012.15 1012.65 1013.13 1013.57 1013.99 1014.36 1014.71 1015.06 1015.40 1015.75 1016.09 1016.42 1016.71 1016.94 1017.09 1017.15
1006.00 1005.78 1005.75 1005.96 1006.37 1006.94 1007.57 1008.17 1008.63 1008.86 1008.84 1008.56 1008.05 1007.40 1006.70 1006.03 1005.50 1005.16 1005.05 1005.19 1005.53 1006.03 1006.65 1007.32 1007.98 1008.61 1009.19 1009.71 1010.19 1010.64 1011.07 1011.51 1011.94 1012.37 1012.79 1013.20 1013.60 1013.98 1014.34 1014.71 1015.07 1015.43 1015.79 1016.14 1016.46 1016.75 1016.97 1017.13 1017.22
1005.90 1005.74 1005.78 1006.04 1006.48 1007.05 1007.64 1008.19 1008.60 1008.82 1008.82 1008.63 1008.27 1007.81 1007.31 1006.85 1006.47 1006.22 1006.14 1006.21 1006.42 1006.77 1007.21 1007.72 1008.27 1008.84 1009.40 1009.95 1010.47 1010.97 1011.43 1011.85 1012.25 1012.63 1012.98 1013.33 1013.66 1014.01 1014.36 1014.72 1015.09 1015.46 1015.82 1016.15 1016.46 1016.72 1016.93 1017.10 1017.21
1005.73 1005.68 1005.84 1006.18 1006.67 1007.23 1007.78 1008.25 1008.58 1008.75 1008.76 1008.64 1008.42 1008.14 1007.86 1007.60 1007.40 1007.27 1007.22 1007.24 1007.36 1007.55 1007.83 1008.19 1008.62 1009.12 1009.66 1010.22 1010.78 1011.31 1011.79 1012.22 1012.59 1012.92 1013.21 1013.49 1013.77 1014.08 1014.41 1014.76 1015.13 1015.49 1015.84 1016.15 1016.42 1016.65 1016.85 1017.01 1017.15
1005.56 1005.68 1005.99 1006.46 1007.01 1007.56 1008.05 1008.41 1008.64 1008.72 1008.69 1008.59 1008.45 1008.33 1008.23 1008.17 1008.13 1008.13 1008.13 1008.15 1008.18 1008.26 1008.41 1008.64 1008.97 1009.40 1009.91 1010.48 1011.07 1011.63 1012.14 1012.57 1012.92 1013.20 1013.44 1013.67 1013.90 1014.17 1014.48 1014.83 1015.18 1015.54 1015.86 1016.15 1016.38 1016.58 1016.75 1016.91 1017.06
1005.45 1005.77 1006.27 1006.87 1007.49 1008.03 1008.45 1008.69 1008.78 1008.73 1008.61 1008.47 1008.37 1008.34 1008.38 1008.47 1008.59 1008.70 1008.77 1008.80 1008.80 1008.81 1008.85 1008.99 1009.24 1009.62 1010.12 1010.70 1011.31 1011.90 1012.42 1012.86 1013.19 1013.44 1013.64 1013.82 1014.02 1014.27 1014.56 1014.90 1015.26 1015.61 1015.92 1016.18 1016.38 1016.54 1016.67 1016.81 1016.97
1005.43 1005.97 1006.65 1007.38 1008.06 1008.59 1008.91 1009.02 1008.95 1008.74 1008.49 1008.28 1008.17 1008.18 1008.31 1008.52 1008.76 1008.97 1009.11 1009.17 1009.17 1009.13 1009.13 1009.20 1009.40 1009.75 1010.23 1010.82 1011.44 1012.05 1012.60 1013.03 1013.36 1013.59 1013.77 1013.92 1014.10 1014.34 1014.63 1014.98 1015.34 1015.69 1016.00 1016.24 1016.41 1016.53 1016.63 1016.73 1016.87
1005.53 1006.24 1007.07 1007.90 1008.61 1009.10 1009.34 1009.31 1009.07 1008.71 1008.32 1008.02 1007.86 1007.88 1008.05 1008.34 1008.67 1008.96 1009.18 1009.29 1009.30 1009.26 1009.23 1009.27 1009.44 1009.77 1010.24 1010.82 1011.46 1012.08 1012.63 1013.08 1013.41 1013.63 1013.80 1013.95 1014.13 1014.37 1014.67 1015.03 1015.42 1015.78 1016.09 1016.32 1016.47 1016.56 1016.61 1016.66 1016.75
1005.71 1006.53 1007.43 1008.30 1009.00 1009.44 1009.57 1009.42 1009.05 1008.55 1008.06 1007.67 1007.47 1007.47 1007.67 1008.01 1008.41 1008.78 1009.05 1009.21 1009.25 1009.22 1009.19 1009.22 1009.38 1009.69 1010.15 1010.72 1011.35 1011.98 1012.54 1013.00 1013.33 1013.56 1013.74 1013.90 1014.09 1014.35 1014.68 1015.07 1015.47 1015.86 1016.18 1016.41 1016.54 1016.59 1016.59 1016.59 1016.61
1005.92 1006.74 1007.64 1008.46 1009.10 1009.46 1009.51 1009.26 1008.79 1008.21 1007.66 1007.23 1007.01 1007.02 1007.25 1007.63 1008.08 1008.50 1008.83 1009.03 1009.11 1009.11 1009.08 1009.11 1009.26 1009.55 1009.99 1010.55 1011.17 1011.79 1012.35 1012.81 1013.16 1013.41 1013.61 1013.79 1014.01 1014.29 1014.65 1015.06 1015.50 1015.90 1016.23 1016.46 1016.59 1016.61 1016.56 1016.50 1016.45
1006.10 1006.83 1007.61 1008.32 1008.84 1009.10 1009.07 1008.76 1008.25 1007.66 1007.11 1006.70 1006.51 1006.56 1006.83 1007.25 1007.75 1008.22 1008.59 1008.84 1008.95 1008.97 1008.96 1009.00 1009.14 1009.41 1009.83 1010.37 1010.97 1011.57 1012.13 1012.59 1012.95 1013.22 1013.44 1013.66 1013.90 1014.21 1014.59 1015.02 1015.47 1015.89 1016.23 1016.47 1016.58 1016.58 1016.50 1016.39 1016.28
1006.20 1006.73 1007.32 1007.85 1008.22 1008.36 1008.26 1007.92 1007.44 1006.90 1006.42 1006.09 1005.98 1006.10 1006.44 1006.92 1007.46 1007.97 1008.38 1008.66 1008.81 1008.87 1008.88 1008.93 1009.06 1009.33 1009.72 1010.23 1010.80 1011.39 1011.93 1012.39 1012.77 1013.06 1013.30 1013.54 1013.80 1014.12 1014.51 1014.95 1015.40 1015.82 1016.16 1016.40 1016.51 1016.50 1016.41 1016.26 1016.11
1006.20 1006.49 1006.83 1007.13 1007.32 1007.34 1007.18 1006.85 1006.42 1005.98 1005.62 1005.42 1005.43 1005.65 1006.07 1006.61 1007.20 1007.75 1008.20 1008.52 1008.71 1008.80 1008.85 1008.92 1009.07 1009.32 1009.70 1010.18 1010.73 1011.29 1011.81 1012.27 1012.64 1012.95 1013.20 1013.45 1013.73 1014.05 1014.43 1014.85 1015.28 1015.69 1016.02 1016.25 1016.37 1016.37 1016.28 1016.13 1015.97
Thickness
5834 5835 5834 5825 5805 5799 5803 5819 5828 5825 5826 5834 5836 5830 5817 5809 5799 5786 5811 5822 5820 5814 5808 5804 5801 5800 5799 5798 5797 5796 5795 5794 5793 5793 5792 5792 5792 5791 5790 5789 5788 5787 5786 5785 5783 5782 5781 5779 5778
5843 5844 5833 5819 5801 5792 5805 5825 5824 5827 5834 5839 5836 5830 5819 5811 5817 5813 5817 5823 5822 5817 5810 5805 5802 5800 5799 5798 5797 5796 5795 5794 5793 5793 5792 5792 5791 5791 5790 5788 5787 5786 5785 5784 5783 5782 5781 5779 5778
5847 5848 5827 5817 5811 5806 5811 5828 5831 5838 5844 5839 5831 5828 5818 5812 5818 5818 5822 5827 5824 5818 5812 5805 5802 5800 5799 5798 5797 5796 5795 5794 5793 5793 5792 5792 5791 5790 5790 5788 5787 5786 5785 5784 5783 5782 5781 5780 5778
5849 5841 5831 5822 5814 5827 5832 5838 5842 5839 5841 5842 5833 5820 5819 5825 5825 5825 5828 5829 5824 5819 5813 5806 5803 5801 5800 5798 5797 5797 5796 5795 5794 5793 5792 5792 5791 5790 5789 5788 5787 5786 5785 5784 5783 5782 5781 5779 5778
5852 5835 5820 5819 5825 5838 5847 5849 5849 5837 5834 5836 5831 5814 5811 5826 5832 5831 5830 5830 5825 5820 5814 5807 5804 5802 5800 5799 5798 5797 5796 5795 5794 5793 5793 5792 5791 5790 5789 5788 5787 5786 5785 5784 5783 5781 5781 5780 5778
5842 5836 5821 5817 5827 5841 5849 5854 5850 5840 5836 5836 5829 5815 5812 5827 5829 5830 5832 5830 5827 5822 5816 5809 5805 5803 5801 5800 5798 5797 5796 5796 5795 5794 5793 5793 5792 5791 5790 5789 5788 5786 5785 5784 5783 5782 5781 5780 5779
5837 5833 5831 5832 5830 5835 5847 5857 5847 5840 5835 5835 5836 5816 5814 5824 5831 5833 5832 5831 5829 5825 5819 5812 5808 5804 5802 5801 5799 5798 5797 5796 5795 5794 5794 5793 5792 5791 5791 5790 5789 5787 5786 5785 5783 5782 5781 5780 5780
5864 5848 5839 5838 5834 5834 5853 5857 5854 5845 5837 5848 5845 5819 5811 5824 5834 5835 5833 5830 5827 5825 5821 5817 5813 5809 5806 5803 5801 5799 5798 5797 5796 5795 5795 5794 5793 5793 5792 5791 5790 5788 5787 5786 5784 5783 5782 5781 5781
5877 5845 5835 5839 5840 5843 5857 5853 5854 5858 5848 5845 5844 5836 5831 5835 5836 5831 5827 5824 5823 5822 5822 5820 5817 5814 5812 5808 5805 5802 5800 5798 5797 5796 5796 5795 5795 5794 5793 5792 5791 5790 5788 5787 5786 5785 5784 5783 5782
5865 5839 5846 5863 5864 5858 5859 5856 5854 5850 5840 5836 5835 5837 5838 5836 5831 5825 5821 5819 5817 5818 5821 5821 5819 5817 5815 5813 5808 5806 5803 5800 5799 5798 5797 5797 5796 5796 5795 5794 5793 5791 5790 5788 5787 5787 5786 5784 5784
5866 5853 5865 5874 5877 5872 5862 5861 5863 5849 5834 5835 5831 5831 5834 5832 5828 5824 5822 5821 5819 5821 5821 5821 5820 5818 5816 5813 5811 5809 5806 5804 5802 5800 5799 5798 5798 5797 5796 5795 5793 5792 5791 5790 5790 5788 5787 5787 5786
5872 5872 5878 5878 5882 5875 5866 5863 5857 5851 5846 5852 5847 5842 5836 5831 5828 5826 5823 5822 5822 5822 5821 5821 5820 5817 5815 5814 5812 5810 5809 5806 5804 5802 5800 5799 5797 5797 5796 5795 5795 5794 5793 5792 5792 5791 5790 5789 5789
5874 5874 5881 5885 5883 5878 5870 5861 5856 5852 5858 5858 5851 5844 5837 5834 5832 5832 5830 5826 5824 5821 5821 5820 5819 5816 5814 5812 5811 5811 5810 5808 5806 5803 5801 5799 5798 5796 5796 5795 5794 5794 5794 5793 5792 5792 5791 5790 5789
5877 5879 5880 5882 5880 5879 5866 5860 5855 5852 5860 5854 5848 5842 5841 5837 5836 5833 5830 5826 5825 5823 5822 5821 5819 5815 5813 5811 5810 5810 5810 5808 5807 5804 5802 5800 5798 5796 5795 5794 5794 5794 5794 5793 5792 5791 5790 5789 5788
5883 5870 5871 5878 5880 5880 5870 5847 5849 5858 5859 5851 5847 5844 5842 5840 5839 5834 5832 5829 5828 5825 5824 5822 5819 5817 5813 5811 5811 5811 5810 5809 5806 5804 5802 5800 5799 5796 5795 5794 5793 5793 5793 5792 5791 5790 5790 5789 5788
5872 5857 5848 5872 5883 5881 5862 5829 5850 5863 5856 5849 5848 5846 5842 5841 5841 5840 5837 5833 5831 5828 5824 5823 5823 5818 5814 5812 5811 5811 5810 5808 5806 5804 5803 5801 5799 5797 5795 5794 5793 5793 5793 5792 5791 5789 5787 5786 5786
5850 5843 5848 5863 5884 5881 5865 5840 5856 5867 5858 5850 5849 5847 5843 5841 5841 5842 5841 5837 5833 5830 5826 5823 5822 5819 5816 5813 5811 5810 5809 5807 5806 5804 5803 5801 5798 5797 5795 5793 5792 5792 5792 5791 5790 5788 5786 5784 5784
5837 5844 5852 5857 5879 5877 5862 5854 5862 5869 5862 5854 5851 5847 5845 5841 5841 5843 5842 5840 5835 5831 5827 5824 5821 5818 5816 5814 5812 5810 5808 5807 5806 5803 5802 5800 5798 5796 5794 5793 5792 5791 5790 5789 5788 5786 5786 5785 5784
5861 5857 5855 5865 5884 5874 5861 5856 5858 5864 5863 5857 5852 5848 5845 5843 5846 5846 5843 5840 5835 5831 5826 5823 5819 5817 5815 5812 5808 5805 5803 5804 5804 5803 5801 5799 5797 5795 5793 5791 5791 5790 5788 5787 5786 5785 5783 5782 5783
5866 5859 5857 5870 5884 5873 5858 5853 5858 5860 5860 5861 5856 5850 5848 5845 5843 5842 5841 5839 5834 5829 5825 5822 5819 5817 5815 5813 5810 5809 5806 5805 5804 5803 5801 5799 5797 5795 5794 5790 5788 5788 5787 5785 5784 5782 5779 5780 5781
5862 5861 5860 5860 5873 5871 5855 5839 5847 5856 5864 5863 5862 5859 5855 5849 5843 5841 5839 5837 5834 5829 5825 5824 5820 5817 5815 5814 5812 5809 5806 5803 5801 5799 5797 5797 5795 5793 5791 5790 5788 5787 5785 5783 5782 5781 5778 5775 5777
5853 5873 5869 5863 5850 5840 5848 5815 5831 5845 5849 5851 5853 5855 5855 5853 5849 5844 5841 5837 5835 5832 5830 5825 5820 5816 5814 5813 5809 5804 5799 5795 5796 5797 5796 5795 5794 5792 5790 5789 5787 5785 5784 5782 5781 5781 5779 5776 5772
5864 5877 5869 5863 5850 5838 5841 5824 5822 5840 5834 5843 5852 5855 5856 5856 5854 5849 5845 5841 5839 5837 5832 5826 5821 5816 5814 5811 5808 5803 5799 5797 5797 5796 5794 5793 5792 5791 5789 5787 5785 5783 5782 5780 5779 5778 5777 5775 5772
5880 5872 5864 5858 5844 5815 5830 5826 5815 5835 5838 5844 5853 5856 5858 5859 5856 5853 5849 5843 5840 5838 5833 5827 5820 5815 5813 5810 5807 5803 5799 5796 5794 5792 5790 5790 5790 5789 5788 5786 5784 5782 5780 5778 5777 5776 5775 5773 5771
5872 5850 5825 5816 5810 5809 5839 5831 5827 5847 5856 5857 5855 5857 5859 5858 5854 5850 5845 5839 5836 5834 5831 5826 5819 5813 5811 5808 5805 5802 5799 5796 5792 5790 5789 5788 5787 5786 5785 5785 5781 5779 5778 5777 5775 5773 5772 5770 5768
5863 5855 5823 5804 5798 5810 5828 5818 5836 5858 5863 5865 5863 5860 5858 5854 5851 5847 5844 5839 5836 5833 5829 5824 5817 5812 5810 5806 5804 5801 5798 5795 5793 5791 5789 5787 5786 5785 5784 5782 5779 5777 5775 5774 5772 5770 5768 5767 5765
5855 5854 5863 5841 5830 5816 5818 5828 5843 5856 5855 5859 5856 5854 5850 5849 5847 5844 5842 5839 5835 5831 5827 5823 5816 5811 5808 5805 5802 5799 5797 5794 5792 5790 5788 5785 5784 5783 5781 5779 5776 5774 5773 5770 5768 5765 5764 5763 5761
5872 5865 5852 5833 5808 5800 5815 5816 5817 5831 5840 5847 5846 5845 5847 5845 5842 5838 5837 5835 5833 5830 5827 5823 5817 5811 5807 5804 5801 5798 5795 5793 5791 5788 5785 5783 5781 5779 5777 5775 5772 5770 5768 5766 5764 5762 5761 5759 5757
5856 5853 5848 5840 5831 5807 5799 5811 5846 5839 5845 5844 5846 5846 5843 5840 5837 5836 5835 5832 5829 5827 5824 5818 5814 5809 5805 5802 5799 5796 5794 5791 5788 5785 5783 5780 5778 5775 5773 5770 5767 5765 5763 5761 5759 5757 5756 5754 5752
5860 5853 5847 5824 5817 5818 5811 5815 5858 5851 5850 5847 5843 5844 5842 5838 5838 5834 5831 5827 5824 5820 5818 5814 5810 5807 5804 5801 5797 5794 5791 5789 5785 5782 5780 5777 5774 5772 5769 5766 5764 5761 5759 5757 5755 5753 5751 5749 5747